Year,Month,Day,Hour,Minute,Value (Times are PST for temperature in C)
2011,04,06,09,11,2.90
2011,04,06,09,12,2.90
2011,04,06,09,13,2.90
2011,04,06,09,14,2.90
2011,04,06,09,15,2.90
2011,04,06,09,16,3.00
2011,04,06,09,17,3.00
2011,04,06,09,18,3.00
2011,04,06,09,19,3.10
2011,04,06,09,20,3.10
2011,04,06,09,21,3.10
2011,04,06,09,22,3.10
2011,04,06,09,23,3.10
2011,04,06,09,24,3.20
2011,04,06,09,25,3.20
2011,04,06,09,26,3.30
2011,04,06,09,27,3.30
2011,04,06,09,28,3.40
2011,04,06,09,29,3.50
2011,04,06,09,30,3.60
2011,04,06,09,31,3.70
2011,04,06,09,32,3.70
2011,04,06,09,33,3.80
2011,04,06,09,34,3.90
2011,04,06,09,35,3.90
2011,04,06,09,36,4.00
2011,04,06,09,37,4.00
2011,04,06,09,38,4.10
2011,04,06,09,39,4.10
2011,04,06,09,40,4.10
2011,04,06,09,41,4.10
2011,04,06,09,42,4.20
2011,04,06,09,43,4.20
2011,04,06,09,44,4.20
2011,04,06,09,45,4.20
2011,04,06,09,46,4.30
2011,04,06,09,47,4.30
2011,04,06,09,48,4.30
2011,04,06,09,49,4.40
2011,04,06,09,50,4.40
2011,04,06,09,51,4.40
2011,04,06,09,52,4.50
2011,04,06,09,53,4.50
2011,04,06,09,54,4.50
2011,04,06,09,55,4.60
2011,04,06,09,56,4.60
2011,04,06,09,57,4.60
2011,04,06,09,58,4.60
2011,04,06,09,59,4.70
2011,04,06,10,00,4.70
2011,04,06,10,01,4.70
2011,04,06,10,02,4.70
2011,04,06,10,03,4.70
2011,04,06,10,04,4.70
2011,04,06,10,05,4.70
2011,04,06,10,06,4.80
2011,04,06,10,07,4.80
2011,04,06,10,08,4.80
2011,04,06,10,09,4.80
2011,04,06,10,10,4.90
2011,04,06,10,11,4.90
2011,04,06,10,12,4.90
2011,04,06,10,13,5.00
2011,04,06,10,14,5.00
2011,04,06,10,15,5.00
2011,04,06,10,16,5.10
2011,04,06,10,17,5.10
2011,04,06,10,18,5.10
2011,04,06,10,19,5.10
2011,04,06,10,20,5.10
2011,04,06,10,21,5.20
2011,04,06,10,22,5.20
2011,04,06,10,23,5.20
2011,04,06,10,24,5.20
2011,04,06,10,25,5.20
2011,04,06,10,26,5.20
2011,04,06,10,27,5.30
2011,04,06,10,28,5.30
2011,04,06,10,29,5.30
2011,04,06,10,30,5.30
2011,04,06,10,31,5.40
2011,04,06,10,32,5.40
2011,04,06,10,33,5.40
2011,04,06,10,34,5.40
2011,04,06,10,35,5.40
2011,04,06,10,36,5.50
2011,04,06,10,37,5.50
2011,04,06,10,38,5.50
2011,04,06,10,39,5.60
2011,04,06,10,40,5.60
2011,04,06,10,41,5.60
2011,04,06,10,42,5.60
2011,04,06,10,43,5.60
2011,04,06,10,44,5.60
2011,04,06,10,45,5.60
2011,04,06,10,46,5.60
2011,04,06,10,47,5.60
2011,04,06,10,48,5.60
2011,04,06,10,49,5.60
2011,04,06,10,50,5.60
2011,04,06,10,51,5.60
2011,04,06,10,52,5.60
2011,04,06,10,53,5.60
2011,04,06,10,54,5.70
2011,04,06,10,55,5.70
2011,04,06,10,56,5.70
2011,04,06,10,57,5.70
2011,04,06,10,58,5.60
2011,04,06,10,59,5.60
2011,04,06,11,00,5.60
2011,04,06,11,01,5.60
2011,04,06,11,02,5.60
2011,04,06,11,03,5.60
2011,04,06,11,04,5.60
2011,04,06,11,05,5.60
2011,04,06,11,06,5.60
2011,04,06,11,07,5.60
2011,04,06,11,08,5.60
2011,04,06,11,09,5.60
2011,04,06,11,10,5.60
2011,04,06,11,11,5.70
2011,04,06,11,12,5.70
2011,04,06,11,13,5.70
2011,04,06,11,14,5.70
2011,04,06,11,15,5.70
2011,04,06,11,16,5.70
2011,04,06,11,17,5.70
2011,04,06,11,18,5.70
2011,04,06,11,19,5.70
2011,04,06,11,20,5.70
2011,04,06,11,21,5.70
2011,04,06,11,22,5.80
2011,04,06,11,23,5.80
2011,04,06,11,24,5.80
2011,04,06,11,25,5.80
2011,04,06,11,26,5.80
2011,04,06,11,27,5.80
2011,04,06,11,28,5.80
2011,04,06,11,29,5.80
2011,04,06,11,30,5.80
2011,04,06,11,31,5.80
2011,04,06,11,32,5.70
2011,04,06,11,33,5.70
2011,04,06,11,34,5.70
2011,04,06,11,35,5.80
2011,04,06,11,36,5.80
2011,04,06,11,37,5.80
2011,04,06,11,38,5.80
2011,04,06,11,39,5.80
2011,04,06,11,40,5.80
2011,04,06,11,41,5.80
2011,04,06,11,42,5.90
2011,04,06,11,43,5.90
2011,04,06,11,44,5.90
2011,04,06,11,45,6.00
2011,04,06,11,46,6.00
2011,04,06,11,47,6.10
2011,04,06,11,48,6.10
2011,04,06,11,49,6.10
2011,04,06,11,50,6.20
2011,04,06,11,51,6.20
2011,04,06,11,52,6.30
2011,04,06,11,53,6.30
2011,04,06,11,54,6.40
2011,04,06,11,55,6.40
2011,04,06,11,56,6.50
2011,04,06,11,57,6.60
2011,04,06,11,58,6.70
2011,04,06,11,59,6.70
2011,04,06,12,00,6.80
2011,04,06,12,01,6.80
2011,04,06,12,02,6.90
2011,04,06,12,03,6.90
2011,04,06,12,04,6.90
2011,04,06,12,05,6.90
2011,04,06,12,06,6.90
2011,04,06,12,07,6.90
2011,04,06,12,08,6.90
2011,04,06,12,09,6.90
2011,04,06,12,10,6.80
2011,04,06,12,11,6.70
2011,04,06,12,12,6.60
2011,04,06,12,13,6.50
2011,04,06,12,14,6.40
2011,04,06,12,15,6.40
2011,04,06,12,16,6.40
2011,04,06,12,17,6.30
2011,04,06,12,18,6.30
2011,04,06,12,19,6.30
2011,04,06,12,20,6.30
2011,04,06,12,21,6.30
2011,04,06,12,22,6.30
2011,04,06,12,23,6.30
2011,04,06,12,24,6.30
2011,04,06,12,25,6.30
2011,04,06,12,26,6.30
2011,04,06,12,27,6.40
2011,04,06,12,28,6.40
2011,04,06,12,29,6.40
2011,04,06,12,30,6.40
2011,04,06,12,31,6.40
2011,04,06,12,32,6.40
2011,04,06,12,33,6.40
2011,04,06,12,34,6.40
2011,04,06,12,35,6.40
2011,04,06,12,36,6.40
2011,04,06,12,37,6.40
2011,04,06,12,38,6.40
2011,04,06,12,39,6.40
2011,04,06,12,40,6.40
2011,04,06,12,41,6.50
2011,04,06,12,42,6.50
2011,04,06,12,43,6.60
2011,04,06,12,44,6.60
2011,04,06,12,45,6.60
2011,04,06,12,46,6.70
2011,04,06,12,47,6.70
2011,04,06,12,48,6.70
2011,04,06,12,49,6.80
2011,04,06,12,50,6.90
2011,04,06,12,51,6.90
2011,04,06,12,52,7.00
2011,04,06,12,53,7.00
2011,04,06,12,54,7.00
2011,04,06,12,55,7.00
2011,04,06,12,56,7.00
2011,04,06,12,57,7.00
2011,04,06,12,58,6.90
2011,04,06,12,59,6.90
2011,04,06,13,00,6.80
2011,04,06,13,01,6.80
2011,04,06,13,02,6.70
2011,04,06,13,03,6.70
2011,04,06,13,04,6.70
2011,04,06,13,05,6.60
2011,04,06,13,06,6.60
2011,04,06,13,07,6.60
2011,04,06,13,08,6.60
2011,04,06,13,09,6.60
2011,04,06,13,10,6.60
2011,04,06,13,11,6.60
2011,04,06,13,12,6.60
2011,04,06,13,13,6.60
2011,04,06,13,14,6.60
2011,04,06,13,15,6.60
2011,04,06,13,16,6.60
2011,04,06,13,17,6.70
2011,04,06,13,18,6.70
2011,04,06,13,19,6.80
2011,04,06,13,20,6.80
2011,04,06,13,21,6.90
2011,04,06,13,22,7.00
2011,04,06,13,23,7.10
2011,04,06,13,24,7.20
2011,04,06,13,25,7.20
2011,04,06,13,26,7.30
2011,04,06,13,27,7.40
2011,04,06,13,28,7.50
2011,04,06,13,29,7.60
2011,04,06,13,30,7.70
2011,04,06,13,31,7.80
2011,04,06,13,32,7.80
2011,04,06,13,33,7.90
2011,04,06,13,34,8.00
2011,04,06,13,35,8.00
2011,04,06,13,36,8.10
2011,04,06,13,37,8.10
2011,04,06,13,38,8.10
2011,04,06,13,39,8.20
2011,04,06,13,40,8.20
2011,04,06,13,41,8.30
2011,04,06,13,42,8.40
2011,04,06,13,43,8.50
2011,04,06,13,44,8.50
2011,04,06,13,45,8.60
2011,04,06,13,46,8.70
2011,04,06,13,47,8.80
2011,04,06,13,48,8.90
2011,04,06,13,49,8.90
2011,04,06,13,50,8.90
2011,04,06,13,51,8.90
2011,04,06,13,52,8.90
2011,04,06,13,53,8.90
2011,04,06,13,54,9.00
2011,04,06,13,55,9.00
2011,04,06,13,56,9.10
2011,04,06,13,57,9.30
2011,04,06,13,58,9.30
2011,04,06,13,59,9.40
2011,04,06,14,00,9.50
2011,04,06,14,01,9.50
2011,04,06,14,02,9.40
2011,04,06,14,03,9.40
2011,04,06,14,04,9.40
2011,04,06,14,05,9.40
2011,04,06,14,06,9.40
2011,04,06,14,07,9.30
2011,04,06,14,08,9.30
2011,04,06,14,09,9.30
2011,04,06,14,10,9.30
2011,04,06,14,11,9.30
2011,04,06,14,12,9.30
2011,04,06,14,13,9.30
2011,04,06,14,14,9.20
2011,04,06,14,15,9.20
2011,04,06,14,16,9.30
2011,04,06,14,17,9.30
2011,04,06,14,18,9.40
2011,04,06,14,19,9.50
2011,04,06,14,20,9.60
2011,04,06,14,21,9.60
2011,04,06,14,22,9.70
2011,04,06,14,23,9.70
2011,04,06,14,24,9.70
2011,04,06,14,25,9.70
2011,04,06,14,26,9.70
2011,04,06,14,27,9.70
2011,04,06,14,28,9.80
2011,04,06,14,29,9.70
2011,04,06,14,30,9.60
2011,04,06,14,31,9.40
2011,04,06,14,32,9.10
2011,04,06,14,33,8.80
2011,04,06,14,34,8.50
2011,04,06,14,35,8.30
2011,04,06,14,36,8.10
2011,04,06,14,37,7.90
2011,04,06,14,38,7.80
2011,04,06,14,39,7.60
2011,04,06,14,40,7.50
2011,04,06,14,41,7.40
2011,04,06,14,42,7.30
2011,04,06,14,43,7.20
2011,04,06,14,44,7.20
2011,04,06,14,45,7.20
2011,04,06,14,46,7.20
2011,04,06,14,47,7.10
2011,04,06,14,48,7.10
2011,04,06,14,49,7.10
2011,04,06,14,50,7.10
2011,04,06,14,51,7.20
2011,04,06,14,52,7.30
2011,04,06,14,53,7.40
2011,04,06,14,54,7.50
2011,04,06,14,55,7.60
2011,04,06,14,56,7.60
2011,04,06,14,57,7.70
2011,04,06,14,58,7.70
2011,04,06,14,59,7.70
2011,04,06,15,00,7.70
2011,04,06,15,01,7.70
2011,04,06,15,02,7.80
2011,04,06,15,03,7.80
2011,04,06,15,04,7.90
2011,04,06,15,05,7.90
2011,04,06,15,06,7.90
2011,04,06,15,07,8.00
2011,04,06,15,08,8.10
2011,04,06,15,09,8.10
2011,04,06,15,10,8.20
2011,04,06,15,11,8.40
2011,04,06,15,12,8.50
2011,04,06,15,13,8.60
2011,04,06,15,14,8.70
2011,04,06,15,15,8.60
2011,04,06,15,16,8.50
2011,04,06,15,17,8.40
2011,04,06,15,18,8.30
2011,04,06,15,19,8.30
2011,04,06,15,20,8.30
2011,04,06,15,21,8.30
2011,04,06,15,22,8.20
2011,04,06,15,23,8.20
2011,04,06,15,24,8.20
2011,04,06,15,25,8.20
2011,04,06,15,26,8.20
2011,04,06,15,27,8.20
2011,04,06,15,28,8.30
2011,04,06,15,29,8.40
2011,04,06,15,30,8.50
2011,04,06,15,31,8.50
2011,04,06,15,32,8.40
2011,04,06,15,33,8.40
2011,04,06,15,34,8.30
2011,04,06,15,35,8.30
2011,04,06,15,36,8.30
2011,04,06,15,37,8.30
2011,04,06,15,38,8.30
2011,04,06,15,39,8.30
2011,04,06,15,40,8.30
2011,04,06,15,41,8.30
2011,04,06,15,42,8.20
2011,04,06,15,43,8.20
2011,04,06,15,44,8.20
2011,04,06,15,45,8.20
2011,04,06,15,46,8.20
2011,04,06,15,47,8.20
2011,04,06,15,48,8.30
2011,04,06,15,49,8.50
2011,04,06,15,50,8.70
2011,04,06,15,51,8.80
2011,04,06,15,52,8.90
2011,04,06,15,53,8.90
2011,04,06,15,54,9.00
2011,04,06,15,55,9.00
2011,04,06,15,56,9.00
2011,04,06,15,57,9.10
2011,04,06,15,58,9.10
2011,04,06,15,59,9.10
2011,04,06,16,00,9.10
2011,04,06,16,01,9.10
2011,04,06,16,02,9.10
2011,04,06,16,03,9.10
2011,04,06,16,04,9.10
2011,04,06,16,05,9.10
2011,04,06,16,06,9.10
2011,04,06,16,07,9.00
2011,04,06,16,08,8.90
2011,04,06,16,09,8.90
2011,04,06,16,10,8.90
2011,04,06,16,11,8.90
2011,04,06,16,12,8.90
2011,04,06,16,13,8.90
2011,04,06,16,14,8.90
2011,04,06,16,15,8.80
2011,04,06,16,16,8.80
2011,04,06,16,17,8.80
2011,04,06,16,18,8.80
2011,04,06,16,19,8.70
2011,04,06,16,20,8.60
2011,04,06,16,21,8.60
2011,04,06,16,22,8.50
2011,04,06,16,23,8.40
2011,04,06,16,24,8.30
2011,04,06,16,25,8.30
2011,04,06,16,26,8.30
2011,04,06,16,27,8.40
2011,04,06,16,28,8.40
2011,04,06,16,29,8.50
2011,04,06,16,30,8.60
2011,04,06,16,31,8.60
2011,04,06,16,32,8.70
2011,04,06,16,33,8.70
2011,04,06,16,34,8.70
2011,04,06,16,35,8.70
2011,04,06,16,36,8.70
2011,04,06,16,37,8.70
2011,04,06,16,38,8.60
2011,04,06,16,39,8.60
2011,04,06,16,40,8.70
2011,04,06,16,41,8.70
2011,04,06,16,42,8.70
2011,04,06,16,43,8.70
2011,04,06,16,44,8.70
2011,04,06,16,45,8.70
2011,04,06,16,46,8.70
2011,04,06,16,47,8.70
2011,04,06,16,48,8.80
2011,04,06,16,49,8.80
2011,04,06,16,50,8.80
2011,04,06,16,51,8.80
2011,04,06,16,52,8.80
2011,04,06,16,53,8.80
2011,04,06,16,54,8.80
2011,04,06,16,55,8.80
2011,04,06,16,56,8.80
2011,04,06,16,57,8.80
2011,04,06,16,58,8.80
2011,04,06,16,59,8.80
2011,04,06,17,00,8.70
2011,04,06,17,01,8.60
2011,04,06,17,02,8.50
2011,04,06,17,03,8.50
2011,04,06,17,04,8.40
2011,04,06,17,05,8.30
2011,04,06,17,06,8.20
2011,04,06,17,07,8.10
2011,04,06,17,08,8.10
2011,04,06,17,09,8.10
2011,04,06,17,10,8.10
2011,04,06,17,11,8.10
2011,04,06,17,12,8.20
2011,04,06,17,13,8.20
2011,04,06,17,14,8.20
2011,04,06,17,15,8.30
2011,04,06,17,16,8.30
2011,04,06,17,17,8.40
2011,04,06,17,18,8.50
2011,04,06,17,19,8.60
2011,04,06,17,20,8.70
2011,04,06,17,21,8.70
2011,04,06,17,22,8.80
2011,04,06,17,23,8.80
2011,04,06,17,24,8.80
2011,04,06,17,25,8.80
2011,04,06,17,26,8.80
2011,04,06,17,27,8.80
2011,04,06,17,28,8.70
2011,04,06,17,29,8.70
2011,04,06,17,30,8.70
2011,04,06,17,31,8.70
2011,04,06,17,32,8.70
2011,04,06,17,33,8.70
2011,04,06,17,34,8.80
2011,04,06,17,35,8.80
2011,04,06,17,36,8.80
2011,04,06,17,37,8.90
2011,04,06,17,38,8.90
2011,04,06,17,39,8.80
2011,04,06,17,40,8.80
2011,04,06,17,41,8.70
2011,04,06,17,42,8.70
2011,04,06,17,43,8.70
2011,04,06,17,44,8.70
2011,04,06,17,45,8.70
2011,04,06,17,46,8.70
2011,04,06,17,47,8.70
2011,04,06,17,48,8.70
2011,04,06,17,49,8.60
2011,04,06,17,50,8.60
2011,04,06,17,51,8.60
2011,04,06,17,52,8.50
2011,04,06,17,53,8.40
2011,04,06,17,54,8.40
2011,04,06,17,55,8.30
2011,04,06,17,56,8.30
2011,04,06,17,57,8.30
2011,04,06,17,58,8.30
2011,04,06,17,59,8.30
2011,04,06,18,00,8.20
2011,04,06,18,01,8.20
2011,04,06,18,02,8.10
2011,04,06,18,03,8.10
2011,04,06,18,04,8.10
2011,04,06,18,05,8.00
2011,04,06,18,06,8.00
2011,04,06,18,07,7.90
2011,04,06,18,08,7.90
2011,04,06,18,09,7.90
2011,04,06,18,10,7.90
2011,04,06,18,11,7.90
2011,04,06,18,12,7.90
2011,04,06,18,13,7.90
2011,04,06,18,14,7.90
2011,04,06,18,15,8.00
2011,04,06,18,16,8.00
2011,04,06,18,17,8.00
2011,04,06,18,18,8.10
2011,04,06,18,19,8.10
2011,04,06,18,20,8.10
2011,04,06,18,21,8.10
2011,04,06,18,22,8.20
2011,04,06,18,23,8.20
2011,04,06,18,24,8.30
2011,04,06,18,25,8.30
2011,04,06,18,26,8.30
2011,04,06,18,27,8.40
2011,04,06,18,28,8.40
2011,04,06,18,29,8.40
2011,04,06,18,30,8.50
2011,04,06,18,31,8.60
2011,04,06,18,32,8.60
2011,04,06,18,33,8.70
2011,04,06,18,34,8.70
2011,04,06,18,35,8.70
2011,04,06,18,36,8.80
2011,04,06,18,37,8.80
2011,04,06,18,38,8.80
2011,04,06,18,39,8.90
2011,04,06,18,40,8.90
2011,04,06,18,41,8.90
2011,04,06,18,42,9.00
2011,04,06,18,43,9.00
2011,04,06,18,44,9.10
2011,04,06,18,45,9.10
2011,04,06,18,46,9.10
2011,04,06,18,47,9.10
2011,04,06,18,48,9.10
2011,04,06,18,49,9.10
2011,04,06,18,50,9.10
2011,04,06,18,51,9.10
2011,04,06,18,52,9.00
2011,04,06,18,53,8.90
2011,04,06,18,54,8.90
2011,04,06,18,55,8.80
2011,04,06,18,56,8.70
2011,04,06,18,57,8.70
2011,04,06,18,58,8.60
2011,04,06,18,59,8.50
2011,04,06,19,00,8.50
2011,04,06,19,01,8.40
2011,04,06,19,02,8.30
2011,04,06,19,03,8.30
2011,04,06,19,04,8.20
2011,04,06,19,05,8.20
2011,04,06,19,06,8.20
2011,04,06,19,07,8.10
2011,04,06,19,08,8.00
2011,04,06,19,09,7.90
2011,04,06,19,10,7.80
2011,04,06,19,11,7.80
2011,04,06,19,12,7.70
2011,04,06,19,13,7.60
2011,04,06,19,14,7.50
2011,04,06,19,15,7.40
2011,04,06,19,16,7.40
2011,04,06,19,17,7.30
2011,04,06,19,18,7.20
2011,04,06,19,19,7.20
2011,04,06,19,20,7.20
2011,04,06,19,21,7.20
2011,04,06,19,22,7.10
2011,04,06,19,23,7.00
2011,04,06,19,24,7.00
2011,04,06,19,25,6.90
2011,04,06,19,26,6.90
2011,04,06,19,27,6.80
2011,04,06,19,28,6.80
2011,04,06,19,29,6.70
2011,04,06,19,30,6.70
2011,04,06,19,31,6.70
2011,04,06,19,32,6.60
2011,04,06,19,33,6.60
2011,04,06,19,34,6.50
2011,04,06,19,35,6.40
2011,04,06,19,36,6.40
2011,04,06,19,37,6.30
2011,04,06,19,38,6.30
2011,04,06,19,39,6.30
2011,04,06,19,40,6.20
2011,04,06,19,41,6.20
2011,04,06,19,42,6.10
2011,04,06,19,43,6.10
2011,04,06,19,44,6.10
2011,04,06,19,45,6.00
2011,04,06,19,46,6.00
2011,04,06,19,47,5.90
2011,04,06,19,48,5.90
2011,04,06,19,49,5.90
2011,04,06,19,50,5.90
2011,04,06,19,51,5.80
2011,04,06,19,52,5.80
2011,04,06,19,53,5.70
2011,04,06,19,54,5.70
2011,04,06,19,55,5.60
2011,04,06,19,56,5.60
2011,04,06,19,57,5.60
2011,04,06,19,58,5.60
2011,04,06,19,59,5.50
2011,04,06,20,00,5.50
2011,04,06,20,01,5.40
2011,04,06,20,02,5.40
2011,04,06,20,03,5.30
2011,04,06,20,04,5.30
2011,04,06,20,05,5.30
2011,04,06,20,06,5.20
2011,04,06,20,07,5.20
2011,04,06,20,08,5.10
2011,04,06,20,09,5.10
2011,04,06,20,10,5.00
2011,04,06,20,11,5.00
2011,04,06,20,12,5.00
2011,04,06,20,13,4.90
2011,04,06,20,14,4.80
2011,04,06,20,15,4.80
2011,04,06,20,16,4.80
2011,04,06,20,17,4.70
2011,04,06,20,18,4.70
2011,04,06,20,19,4.60
2011,04,06,20,20,4.60
2011,04,06,20,21,4.60
2011,04,06,20,22,4.50
2011,04,06,20,23,4.50
2011,04,06,20,24,4.40
2011,04,06,20,25,4.40
2011,04,06,20,26,4.40
2011,04,06,20,27,4.40
2011,04,06,20,28,4.30
2011,04,06,20,29,4.30
2011,04,06,20,30,4.30
2011,04,06,20,31,4.30
2011,04,06,20,32,4.20
2011,04,06,20,33,4.20
2011,04,06,20,34,4.20
2011,04,06,20,35,4.10
2011,04,06,20,36,4.10
2011,04,06,20,37,4.10
2011,04,06,20,38,4.10
2011,04,06,20,39,4.00
2011,04,06,20,40,4.00
2011,04,06,20,41,4.00
2011,04,06,20,42,3.90
2011,04,06,20,43,3.90
2011,04,06,20,44,3.90
2011,04,06,20,45,3.80
2011,04,06,20,46,3.80
2011,04,06,20,47,3.80
2011,04,06,20,48,3.80
2011,04,06,20,49,3.70
2011,04,06,20,50,3.70
2011,04,06,20,51,3.70
2011,04,06,20,52,3.70
2011,04,06,20,53,3.60
2011,04,06,20,54,3.60
2011,04,06,20,55,3.60
2011,04,06,20,56,3.50
2011,04,06,20,57,3.50
2011,04,06,20,58,3.50
2011,04,06,20,59,3.40
2011,04,06,21,00,3.40
2011,04,06,21,01,3.40
2011,04,06,21,02,3.40
2011,04,06,21,03,3.30
2011,04,06,21,04,3.30
2011,04,06,21,05,3.30
2011,04,06,21,06,3.20
2011,04,06,21,07,3.20
2011,04,06,21,08,3.20
2011,04,06,21,09,3.20
2011,04,06,21,10,3.10
2011,04,06,21,11,3.10
2011,04,06,21,12,3.10
2011,04,06,21,13,3.10
2011,04,06,21,14,3.00
2011,04,06,21,15,3.00
2011,04,06,21,16,3.00
2011,04,06,21,17,2.90
2011,04,06,21,18,2.90
2011,04,06,21,19,2.90
2011,04,06,21,20,2.90
2011,04,06,21,21,2.80
2011,04,06,21,22,2.80
2011,04,06,21,23,2.80
2011,04,06,21,24,2.80
2011,04,06,21,25,2.80
2011,04,06,21,26,2.70
2011,04,06,21,27,2.70
2011,04,06,21,28,2.70
2011,04,06,21,29,2.70
2011,04,06,21,30,2.70
2011,04,06,21,31,2.70
2011,04,06,21,32,2.60
2011,04,06,21,33,2.60
2011,04,06,21,34,2.60
2011,04,06,21,35,2.60
2011,04,06,21,36,2.50
2011,04,06,21,37,2.50
2011,04,06,21,38,2.50
2011,04,06,21,39,2.50
2011,04,06,21,40,2.40
2011,04,06,21,41,2.40
2011,04,06,21,42,2.40
2011,04,06,21,43,2.40
2011,04,06,21,44,2.40
2011,04,06,21,45,2.30
2011,04,06,21,46,2.30
2011,04,06,21,47,2.30
2011,04,06,21,48,2.30
2011,04,06,21,49,2.30
2011,04,06,21,50,2.30
2011,04,06,21,51,2.20
2011,04,06,21,52,2.20
2011,04,06,21,53,2.20
2011,04,06,21,54,2.20
2011,04,06,21,55,2.20
2011,04,06,21,56,2.10
2011,04,06,21,57,2.10
2011,04,06,21,58,2.10
2011,04,06,21,59,2.10
2011,04,06,22,00,2.10
2011,04,06,22,01,2.10
2011,04,06,22,02,2.10
2011,04,06,22,03,2.10
2011,04,06,22,04,2.10
2011,04,06,22,05,2.00
2011,04,06,22,06,2.00
2011,04,06,22,07,2.00
2011,04,06,22,08,2.00
2011,04,06,22,09,2.00
2011,04,06,22,10,2.00
2011,04,06,22,11,1.90
2011,04,06,22,12,1.90
2011,04,06,22,13,1.90
2011,04,06,22,14,1.90
2011,04,06,22,15,1.90
2011,04,06,22,16,1.90
2011,04,06,22,17,1.90
2011,04,06,22,18,1.80
2011,04,06,22,19,1.80
2011,04,06,22,20,1.80
2011,04,06,22,21,1.80
2011,04,06,22,22,1.80
2011,04,06,22,23,1.80
2011,04,06,22,24,1.80
2011,04,06,22,25,1.80
2011,04,06,22,26,1.70
2011,04,06,22,27,1.70
2011,04,06,22,28,1.70
2011,04,06,22,29,1.70
2011,04,06,22,30,1.70
2011,04,06,22,31,1.60
2011,04,06,22,32,1.60
2011,04,06,22,33,1.60
2011,04,06,22,34,1.50
2011,04,06,22,35,1.50
2011,04,06,22,36,1.50
2011,04,06,22,37,1.40
2011,04,06,22,38,1.40
2011,04,06,22,39,1.40
2011,04,06,22,40,1.40
2011,04,06,22,41,1.40
2011,04,06,22,42,1.30
2011,04,06,22,43,1.30
2011,04,06,22,44,1.30
2011,04,06,22,45,1.30
2011,04,06,22,46,1.30
2011,04,06,22,47,1.30
2011,04,06,22,48,1.30
2011,04,06,22,49,1.30
2011,04,06,22,50,1.30
2011,04,06,22,51,1.30
2011,04,06,22,52,1.30
2011,04,06,22,53,1.30
2011,04,06,22,54,1.30
2011,04,06,22,55,1.30
2011,04,06,22,56,1.30
2011,04,06,22,57,1.20
2011,04,06,22,58,1.20
2011,04,06,22,59,1.20
2011,04,06,23,00,1.20
2011,04,06,23,01,1.20
2011,04,06,23,02,1.10
2011,04,06,23,03,1.10
2011,04,06,23,04,1.10
2011,04,06,23,05,1.10
2011,04,06,23,06,1.10
2011,04,06,23,07,1.10
2011,04,06,23,08,1.00
2011,04,06,23,09,1.00
2011,04,06,23,10,1.00
2011,04,06,23,11,1.00
2011,04,06,23,12,1.00
2011,04,06,23,13,1.00
2011,04,06,23,14,0.90
2011,04,06,23,15,0.90
2011,04,06,23,16,0.90
2011,04,06,23,17,0.90
2011,04,06,23,18,0.90
2011,04,06,23,19,0.90
2011,04,06,23,20,0.90
2011,04,06,23,21,0.90
2011,04,06,23,22,0.80
2011,04,06,23,23,0.80
2011,04,06,23,24,0.80
2011,04,06,23,25,0.80
2011,04,06,23,26,0.80
2011,04,06,23,27,0.80
2011,04,06,23,28,0.80
2011,04,06,23,29,0.80
2011,04,06,23,30,0.80
2011,04,06,23,31,0.80
2011,04,06,23,32,0.80
2011,04,06,23,33,0.80
2011,04,06,23,34,0.80
2011,04,06,23,35,0.70
2011,04,06,23,36,0.70
2011,04,06,23,37,0.70
2011,04,06,23,38,0.70
2011,04,06,23,39,0.70
2011,04,06,23,40,0.70
2011,04,06,23,41,0.60
2011,04,06,23,42,0.60
2011,04,06,23,43,0.60
2011,04,06,23,44,0.60
2011,04,06,23,45,0.60
2011,04,06,23,46,0.60
2011,04,06,23,47,0.50
2011,04,06,23,48,0.50
2011,04,06,23,49,0.50
2011,04,06,23,50,0.50
2011,04,06,23,51,0.50
2011,04,06,23,52,0.50
2011,04,06,23,53,0.50
2011,04,06,23,54,0.40
2011,04,06,23,55,0.40
2011,04,06,23,56,0.40
2011,04,06,23,57,0.40
2011,04,06,23,58,0.40
2011,04,06,23,59,0.40
